Location: Unspecified
(0.0000°N, 0.0000°E)
Time: 18:35:35
(UTC+00:00)

deb Delta 126 - Pass Details

Date: 15 February 2026
Orbit: 1485 x 1545 km, 102.1° (Epoch: 6 March)

Event Time Altitude Azimuth Distance (km) Brightness Sun altitude
Rises 04:16:54 0° 356° (N) 4,669 ? -28.5°
Enters shadow 04:19:17 - 350° (N) 3,924 ? -28.0°
Exits shadow 04:35:10 - 226° (SW) 3,747 ? -24.1°
Sets 04:38:03 0° 218° (SW) 4,628 ? -23.4°
